Theta_e
328 331 335 336 337 337 337 338 339 339 340 339 340 341 342 343 343 341 342 341 341 340 339 342 347 350 353 354 354 352 352 351 350
325 328 332 334 336 338 339 338 339 339 339 340 341 341 342 343 343 342 342 342 342 342 342 343 346 348 351 353 354 353 352 350 351
323 327 329 332 335 335 339 340 340 340 340 340 341 342 343 343 344 344 344 342 341 342 341 344 346 348 349 351 353 353 352 351 352
323 325 328 330 331 334 337 341 341 340 339 340 341 343 343 344 344 345 345 342 342 342 342 341 344 348 349 350 353 354 352 352 353
324 326 328 330 331 330 334 338 340 340 339 340 341 343 344 344 345 345 344 344 343 343 342 342 344 347 349 351 353 354 352 351 353
322 326 327 329 330 330 331 336 339 339 339 339 342 343 343 344 344 344 344 344 344 345 345 345 345 345 346 349 351 353 354 354 352
311 323 326 328 328 330 331 335 337 339 339 340 341 342 343 343 344 344 345 346 346 344 344 344 345 347 348 349 351 352 354 354 353
310 311 324 327 328 329 332 334 337 339 340 341 341 340 343 343 344 345 345 346 348 350 348 345 345 345 346 348 351 351 352 354 354
314 310 313 326 328 329 331 334 336 339 340 341 342 340 340 344 345 346 345 345 344 345 348 350 350 347 346 346 348 339 337 349 353
320 321 313 319 327 330 332 335 336 338 340 342 342 342 342 343 345 346 347 348 347 346 344 345 348 349 349 348 348 333 333 338 352
320 325 323 325 329 332 334 336 336 338 341 342 342 342 343 344 345 345 347 348 348 349 349 347 345 346 348 349 348 331 329 334 351
315 325 332 328 332 333 335 336 337 337 338 340 342 342 343 345 346 346 346 346 348 350 351 350 349 349 348 348 349 328 327 331 347
313 323 337 333 331 332 332 334 336 335 336 338 340 343 345 347 348 348 348 348 348 351 352 352 353 352 353 343 350 330 324 329 349
312 318 322 337 342 341 334 335 336 334 335 336 340 344 346 348 349 349 351 352 353 352 352 353 354 355 356 357 351 351 324 321 348
310 311 317 323 331 337 343 338 335 334 335 338 339 343 345 347 349 351 351 351 352 354 353 353 353 354 355 357 359 333 325 321 323
310 312 315 320 322 328 333 345 346 344 344 343 343 340 341 343 348 350 352 352 352 352 354 353 353 353 353 355 358 359 324 320 320
307 310 312 317 319 320 321 326 334 341 344 345 347 346 346 347 345 344 347 352 353 353 352 352 352 352 352 354 355 357 358 344 334
306 308 310 313 314 314 316 320 322 326 334 343 342 342 345 348 349 347 349 349 346 351 354 345 352 353 354 353 353 354 341 343 352
306 307 309 311 312 313 314 316 317 321 325 332 338 340 342 342 347 350 348 344 335 305 306 303 302 305 324 354 328 321 313 311 311
308 308 308 309 310 311 313 314 316 320 323 325 328 331 337 341 339 347 345 341 338 338 320 302 300 301 302 302 317 309 306 305 304
Wind_Speed
16 18 18 21 23 21 20 20 20 18 18 18 16 16 16 14 12 8 9 9 6 6 6 5 5 7 6 7 5 5 4 3 4
18 22 22 25 22 22 21 20 22 20 19 18 18 18 15 14 12 12 11 9 8 7 5 5 6 7 8 8 7 7 6 5 6
17 21 23 18 21 23 22 22 21 20 21 21 18 18 15 14 14 14 11 8 10 8 6 6 6 7 8 7 8 8 8 6 5
16 19 22 22 21 21 22 20 21 21 21 20 18 17 16 15 14 13 12 11 10 10 7 8 7 8 8 8 9 8 8 8 7
17 20 22 21 20 19 20 23 22 23 21 20 19 18 17 16 14 14 14 12 12 10 10 9 10 8 8 8 8 9 9 10 9
13 16 16 17 13 18 21 21 21 22 20 20 19 17 17 16 15 14 15 15 12 11 10 11 10 9 10 10 10 9 9 10 10
9 11 17 17 14 19 20 20 20 20 20 19 18 17 17 17 17 17 16 14 13 12 12 12 12 12 12 11 9 9 10 10 10
6 9 11 17 19 19 19 17 18 18 18 18 18 18 17 18 16 14 13 13 14 13 13 13 13 12 11 11 11 9 11 11 11
8 12 17 20 22 22 21 21 21 20 19 19 18 17 18 16 15 15 15 14 13 12 13 14 13 13 14 13 11 15 17 15 12
11 12 12 19 22 22 22 22 20 22 20 18 18 18 17 16 15 16 15 14 13 13 14 12 14 13 12 14 14 15 18 19 13
13 14 12 14 16 19 21 21 19 15 18 18 18 16 14 14 15 14 13 13 13 12 12 13 12 12 13 13 12 15 17 17 16
12 13 11 6 11 8 11 16 16 17 16 16 16 16 16 16 16 15 14 14 14 13 12 12 13 13 13 15 14 16 18 14 14
14 13 11 6 9 8 11 11 15 16 16 16 17 18 16 14 14 15 15 15 15 13 12 12 10 12 14 15 15 14 17 17 11
12 12 17 13 13 10 5 12 15 14 14 17 12 11 12 12 13 14 14 12 12 12 12 11 11 12 12 14 14 14 18 20 13
20 19 20 18 15 13 10 7 9 9 9 6 10 12 13 14 14 12 11 14 12 13 12 12 12 12 11 10 12 15 16 20 22
15 17 17 16 15 16 16 15 11 11 4 5 7 8 10 9 10 11 12 12 11 10 11 11 10 9 9 9 8 10 16 19 21
12 13 15 14 18 19 17 15 14 11 9 8 8 7 5 5 7 7 6 7 8 9 9 9 9 9 10 8 7 8 8 9 9
8 9 10 12 13 13 13 12 12 12 11 7 8 6 4 4 4 5 6 6 5 8 7 7 9 9 8 8 9 10 12 11 9
5 7 7 9 10 12 11 10 9 10 10 9 7 5 4 3 2 1 3 4 4 5 1 2 2 4 4 6 11 11 15 16 14
7 6 7 7 6 6 7 8 8 6 6 7 7 5 3 2 2 0 2 3 3 4 1 4 2 5 8 10 7 10 10 11 9
Wind_Direction
196 198 204 201 200 197 197 200 196 192 193 198 186 189 193 194 192 190 198 191 192 197 194 195 171 193 193 206 199 194 202 196 204
195 198 201 203 196 200 197 196 198 192 194 202 189 192 193 194 193 192 198 190 189 196 185 189 182 185 201 207 201 197 194 212 210
205 200 207 202 199 196 197 197 195 192 198 195 193 191 196 195 193 196 194 182 193 191 186 188 176 187 203 203 208 201 191 210 223
202 201 199 202 198 194 194 191 192 194 196 195 196 192 192 196 195 194 190 192 197 193 182 186 195 191 200 205 205 202 194 209 213
206 204 202 202 197 191 188 191 190 193 194 193 192 192 189 195 195 191 192 198 198 190 189 189 199 196 202 207 208 203 200 207 209
207 207 202 205 193 192 195 192 188 190 189 192 191 186 190 192 194 192 196 199 194 192 186 193 198 199 212 213 209 202 203 208 209
199 200 198 196 191 196 193 189 185 184 188 189 187 185 189 191 192 195 197 196 194 184 187 196 201 202 206 209 206 204 207 212 216
263 226 192 196 196 192 192 182 182 181 186 186 184 185 190 195 193 192 193 192 197 193 189 203 206 204 209 208 207 209 210 214 216
259 233 221 204 200 188 184 185 180 179 181 183 181 186 192 190 189 190 193 193 192 191 196 204 204 207 209 210 216 214 208 210 218
309 297 223 206 194 185 184 182 174 181 175 172 181 186 190 189 189 193 196 194 188 195 199 199 211 212 210 217 219 212 210 207 222
338 325 273 196 191 184 188 177 174 156 167 174 182 186 184 186 188 191 190 191 194 197 198 202 205 211 213 218 225 211 212 207 220
338 322 294 207 177 171 167 165 162 156 163 169 174 183 185 185 185 186 186 194 194 198 200 204 209 210 212 217 226 209 209 202 223
350 345 0 20 119 120 129 144 151 151 162 169 182 186 187 184 183 187 191 195 196 200 204 212 212 215 215 216 224 211 206 201 219
15 17 22 32 54 74 108 152 149 155 163 186 178 166 170 177 185 190 193 191 194 196 201 206 209 215 219 220 214 217 202 202 214
19 18 25 28 47 51 55 62 126 140 165 161 158 165 176 183 187 189 191 192 193 194 197 204 209 211 219 220 219 211 207 206 209
24 25 25 27 41 51 46 52 71 76 25 132 143 156 178 185 188 193 194 194 196 194 198 206 211 211 219 223 214 217 210 208 215
24 25 27 25 35 40 38 31 41 42 33 46 86 102 131 154 165 181 189 189 194 197 201 206 213 213 219 223 216 204 208 215 219
15 24 24 29 33 36 30 23 31 25 20 28 64 74 87 108 139 183 191 184 193 203 206 211 211 220 215 209 214 210 204 201 207
11 18 18 30 27 29 15 14 15 16 17 21 32 50 42 70 81 168 199 182 187 81 29 323 269 259 243 217 231 191 204 210 208
345 2 21 29 23 13 3 2 360 357 1 4 15 12 335 27 64 136 168 174 186 224 238 39 358 263 247 229 249 218 218 218 215